FENGYUN 1C DEB, 31274

Orbit data source: Space-Track

FENGYUN 1C DEB, 31274 is space debris in SSO originally from a launch on Mon, 10 May 1999 UTC launched from the Taiyaun Space Center, China (TSC). Fengyun 1C debris stems from the Chinese weather satellite Fengyun-1C, which was intentionally destroyed by a Chinese anti-satellite missile in 2007. This event dramatically increased the amount of space debris, with thousands of trackable fragments posing hazards to satellites and human spaceflight. The Fengyun 1C debris cloud has become a focal point in discussions about space sustainability and the need for international regulations to prevent the creation of new debris.

Loading next visibility...
Identifier
31274, 1999-025BNG
Orbit
SSO
Country
Flag of CNCN / PRC
Related business
Manufacturer
Unknown
Mission
Spacecraft
Bus & Motor
Unknown
Mass
Unknown
Launch date (UTC)
1999-05-10 (27 years ago)
Launch vehicle
Unknown
Launch site
Taiyaun Space Center, China (TSC)
Object type
Payload
Rocket body
Debris
Shape & HBR
Unknown shape, 0.1 m
Radar Cross Section
Medium (>0.1 m² and <1 m²)

Expand to show TLE details & history
Last TLE update: 1 week ago

TLE from 1 week ago
0 FENGYUN 1C DEB
1 31274U 99025BNG 26153.30895283  .00000631  00000-0  46763-3 0  9996
2 31274  99.0141 331.3004 0239219   7.1866 353.2622 13.86007114965836
Epoch: 2026-06-02T07:24Z
TLE epoch observation values (Epoch: 2026-06-02T07:24:53.524Z)
Latitude
-0.00005°
Longitude
-30.70639°
Altitude
771.626 km
Speed
7.556 km/s
True Right ascension
22h 05m 12s
True Declination
0° 00' 00"
Sunlit
Object was in daylight at epoch
Visualization orbit readout
Latitude
Unknown
Longitude
Unknown
Altitude
Unknown
Speed
Unknown
Apparent Right ascension
Unknown
Apparent Declination
Unknown
Sunlit
N/A
Visualization observer readout
Local Sidereal Time
23:12:22
Azimuth
Unknown
Elevation
Unknown
Doppler factor
Unknown
Orbital elements
Apogee altitude
1,114.934 km
Perigee altitude
764.813 km
Semi-major axis
7,318.011 km
Eccentricity
0.02392
Inclination
99.0141°
RAAN
331.3004°
Arg. of periapsis
7.1866°
True anomaly
352.93075°
Mean anomaly
353.2622°
Eccentric anomaly
353.09748°
Mean motion
3.467 °/min
Orbital period
103.84 mins
BSTAR
0.00046763
Loading maneuver chart data...
Computing Atmospheric mass density...
Loading historical data...
Loading historical data...
Loading historical data...
Loading historical data...
Loading historical data...
Loading historical data...
Loading historical data...

Documentation

Showing up to 5 results
|